Date String (YYYY-MM-DD hh:mm:ss) UTC,Instrument flags,Ambient pressure (hPa),Sample flow (lpm),Bypass flow (lpm),Sample temperature (°C),Ambient temperature (°C),ASC tube jacket temperature (°C),LED temperature (°C),Box temperature (°C),Sample RH (%),Span deviation,Mass concentration (μg/m³),Mass concentration (μg/m³),Mass concentration (μg/m³)
DateTimeUTC,F1_M11,P_M11,Q1_M11,Q2_M11,T1_M11,T2_M11,T3_M11,T4_M11,T5_M11,U1_M11,ZSPAN_M11,X0_M11,X2_M11,X1_M11
2022-09-02 15:00:00,,0829.2,5.00,0.00,30.1,27.1,00.0,38.8,31.7,17.5,0000.0,0015.06,0006.08,0005.16
2022-09-02 15:01:00,,0829.2,5.00,0.00,30.0,27.5,00.0,38.8,31.7,17.9,0000.0,0014.04,0006.11,0005.19
2022-09-02 15:02:00,,0829.3,5.00,0.00,30.0,27.8,00.0,38.8,31.7,18.0,0000.0,0013.30,0006.19,0005.22
2022-09-02 15:03:00,,0829.2,4.99,0.00,30.0,28.1,00.0,38.8,31.8,18.2,0000.0,0013.49,0006.18,0005.24
2022-09-02 15:04:00,,0829.3,4.99,0.00,30.0,28.4,00.0,38.8,31.8,17.7,0000.0,0013.11,0006.15,0005.26
2022-09-02 15:05:00,,0829.2,5.00,0.00,30.0,28.5,00.0,38.8,31.8,17.3,0000.0,0011.80,0006.13,0005.27
2022-09-02 15:06:00,,0829.3,5.01,0.00,30.0,28.7,00.0,38.8,31.9,16.8,0000.0,0011.74,0006.12,0005.27
2022-09-02 15:07:00,,0829.3,5.00,0.00,30.1,28.8,00.0,38.8,31.9,16.8,0000.0,0011.79,0006.01,0005.25
2022-09-02 15:08:00,,0829.3,5.01,0.00,30.1,28.9,00.0,38.8,32.0,17.3,0000.0,0011.65,0005.98,0005.24
2022-09-02 15:09:00,,0829.3,5.01,0.00,30.1,29.0,00.0,38.8,32.0,17.2,0000.0,0011.30,0005.95,0005.21
2022-09-02 15:10:00,,0829.3,4.99,0.00,30.1,29.1,00.0,38.9,32.0,17.5,0000.0,0011.29,0005.90,0005.18
2022-09-02 15:11:00,,0829.2,5.01,0.00,30.2,29.2,00.0,38.9,32.1,17.1,0000.0,0011.46,0005.84,0005.18
2022-09-02 15:12:00,,0829.4,5.00,0.00,30.2,28.5,00.0,38.9,32.0,16.9,0000.0,0011.63,0005.83,0005.16
2022-09-02 15:13:00,,0829.2,5.00,0.00,30.1,27.0,00.0,38.8,31.9,16.9,0000.0,0011.87,0005.82,0005.16
2022-09-02 15:14:00,,0829.2,5.01,0.00,30.1,26.7,00.0,38.8,31.8,16.9,0000.0,0011.65,0005.82,0005.14
2022-09-02 15:15:00,,0829.2,5.00,0.00,30.0,26.9,00.0,38.7,31.7,16.6,0000.0,0011.87,0005.81,0005.12
2022-09-02 15:16:00,,0829.3,4.99,0.00,29.9,27.3,00.0,38.7,31.6,17.0,0000.0,0012.18,0005.83,0005.12
2022-09-02 15:17:00,,0829.3,5.00,0.00,29.9,27.6,00.0,38.7,31.6,16.7,0000.0,0012.91,0005.86,0005.11
2022-09-02 15:18:00,,0829.3,5.01,0.00,29.9,27.9,00.0,38.7,31.7,16.5,0000.0,0012.85,0005.91,0005.11
2022-09-02 15:19:00,,0829.3,5.00,0.00,29.9,28.2,00.0,38.7,31.7,16.3,0000.0,0013.59,0005.92,0005.10
2022-09-02 15:20:00,,0829.3,5.00,0.00,29.9,28.4,00.0,38.7,31.7,15.9,0000.0,0013.78,0005.91,0005.09
2022-09-02 15:21:00,,0829.3,5.00,0.00,29.9,28.5,00.0,38.7,31.8,16.4,0000.0,0013.55,0005.94,0005.07
2022-09-02 15:22:00,,0829.3,5.00,0.00,30.0,28.7,00.0,38.7,31.8,16.2,0000.0,0013.49,0005.95,0005.06
2022-09-02 15:23:00,,0829.3,4.99,0.00,30.0,28.8,00.0,38.7,31.9,16.1,0000.0,0013.99,0005.91,0005.03
2022-09-02 15:24:00,,0829.2,5.00,0.00,30.0,28.9,00.0,38.7,31.9,15.1,0000.0,0013.75,0005.86,0004.99
2022-09-02 15:25:00,,0829.3,5.00,0.00,30.0,29.0,00.0,38.8,31.9,15.8,0000.0,0013.61,0005.83,0004.95
2022-09-02 15:26:00,,0829.3,4.98,0.00,30.1,29.0,00.0,38.8,32.0,16.1,0000.0,0013.59,0005.83,0004.93
2022-09-02 15:27:00,,0829.3,5.01,0.00,30.1,29.1,00.0,38.8,32.0,16.2,0000.0,0013.79,0005.82,0004.91
2022-09-02 15:28:00,,0829.3,5.01,0.00,30.1,29.1,00.0,38.8,32.0,16.3,0000.0,0013.27,0005.83,0004.89
2022-09-02 15:29:00,,0829.2,5.00,0.00,30.1,28.2,00.0,38.8,32.0,16.6,0000.0,0013.24,0005.82,0004.88
2022-09-02 15:30:00,,0829.3,5.00,0.00,30.1,27.0,00.0,38.8,31.8,16.8,0000.0,0013.08,0005.87,0004.88
2022-09-02 15:31:00,,0829.3,5.00,0.00,30.0,27.1,00.0,38.8,31.8,17.4,0000.0,0013.00,0005.93,0004.89
2022-09-02 15:32:00,,0829.2,5.01,0.00,30.0,27.4,00.0,38.7,31.7,17.8,0000.0,0015.31,0006.03,0004.89
2022-09-02 15:33:00,,0829.2,4.98,0.00,30.0,27.7,00.0,38.7,31.7,17.7,0000.0,0016.28,0006.10,0004.89
2022-09-02 15:34:00,,0829.3,5.01,0.00,30.0,28.0,00.0,38.7,31.7,18.5,0000.0,0016.81,0006.12,0004.88
2022-09-02 15:35:00,,0829.3,5.00,0.00,30.0,28.3,00.0,38.7,31.8,18.6,0000.0,0016.49,0006.12,0004.87
2022-09-02 15:36:00,,0829.4,5.00,0.00,30.0,28.5,00.0,38.7,31.8,17.1,0000.0,0016.91,0006.16,0004.87
2022-09-02 15:37:00,,0829.4,5.00,0.00,30.0,28.6,00.0,38.7,31.8,17.7,0000.0,0017.20,0006.17,0004.88
2022-09-02 15:38:00,,0829.5,5.01,0.00,30.0,28.7,00.0,38.7,31.9,17.5,0000.0,0017.29,0006.21,0004.89
2022-09-02 15:39:00,,0829.5,4.99,0.00,30.0,28.9,00.0,38.7,31.9,16.9,0000.0,0017.13,0006.19,0004.88
2022-09-02 15:40:00,,0829.5,5.01,0.00,30.1,29.0,00.0,38.8,31.9,16.8,0000.0,0017.11,0006.15,0004.89
2022-09-02 15:41:00,,0829.5,4.99,0.00,30.1,28.8,00.0,38.8,32.0,16.9,0000.0,0017.88,0006.11,0004.87
2022-09-02 15:42:00,,0829.5,5.00,0.00,30.1,27.6,00.0,38.8,31.9,16.6,0000.0,0017.52,0006.01,0004.85
2022-09-02 15:43:00,,0829.5,5.00,0.00,30.0,27.0,00.0,38.7,31.8,16.9,0000.0,0015.48,0005.92,0004.85
2022-09-02 15:44:00,,0829.5,5.01,0.00,30.0,27.2,00.0,38.7,31.8,16.8,0000.0,0014.31,0005.82,0004.84
2022-09-02 15:45:00,,0829.5,5.00,0.00,29.9,27.5,00.0,38.7,31.7,16.7,0000.0,0014.06,0005.81,0004.82
2022-09-02 15:46:00,,0829.5,5.01,0.00,29.9,27.8,00.0,38.7,31.7,16.8,0000.0,0014.14,0005.82,0004.82
2022-09-02 15:47:00,,0829.5,4.99,0.00,29.9,28.1,00.0,38.7,31.7,17.4,0000.0,0014.08,0005.81,0004.82
2022-09-02 15:48:00,,0829.5,4.99,0.00,29.9,28.3,00.0,38.7,31.8,18.3,0000.0,0014.00,0005.77,0004.82
2022-09-02 15:49:00,,0829.5,5.00,0.00,30.0,28.5,00.0,38.7,31.7,18.2,0000.0,0014.39,0005.73,0004.82
2022-09-02 15:50:00,,0829.5,5.00,0.00,30.0,28.6,00.0,38.7,31.8,18.3,0000.0,0014.45,0005.73,0004.82
2022-09-02 15:51:00,,0829.4,5.00,0.00,30.0,28.8,00.0,38.7,31.9,18.4,0000.0,0015.00,0005.77,0004.82
2022-09-02 15:52:00,,0829.5,4.98,0.00,30.0,28.9,00.0,38.7,31.9,18.0,0000.0,0014.40,0005.77,0004.82
2022-09-02 15:53:00,,0829.5,5.00,0.00,30.1,28.9,00.0,38.7,32.0,17.3,0000.0,0014.54,0005.77,0004.81
2022-09-02 15:54:00,,0829.5,4.99,0.00,30.1,28.0,00.0,38.7,31.9,17.2,0000.0,0014.71,0005.76,0004.79
2022-09-02 15:55:00,,0829.5,5.00,0.00,30.0,27.1,00.0,38.7,31.7,17.0,0000.0,0015.44,0005.73,0004.77
2022-09-02 15:56:00,,0829.5,5.01,0.00,30.0,27.2,00.0,38.7,31.8,17.6,0000.0,0015.40,0005.72,0004.77
2022-09-02 15:57:00,,0829.5,5.01,0.00,29.9,27.5,00.0,38.7,31.7,18.7,0000.0,0015.44,0005.69,0004.78
2022-09-02 15:58:00,,0829.5,4.99,0.00,29.9,27.8,00.0,38.6,31.7,18.7,0000.0,0016.06,0005.70,0004.78
2022-09-02 15:59:00,,0829.6,5.00,0.00,29.9,28.1,00.0,38.6,31.7,18.7,0000.0,0016.54,0005.68,0004.76
